When you browse on this site, cookies collect data to enhance your experience and personalize the content and advertising you see.
Visit our Privacy Policy to learn more. By continuing to use the site, you agree to this use of cookies and data.
  • In Belgium
  • List of Countries
  • For 7 days
  • Water Temperature
  • Satellite Maps
  • Weather Map
  • Weather Widgets
  • user-avatar
    Login

    Hourly Weather Sarajevo

    Today, 17 February, Sunday

    Time Temperature Precipitation Wind Pressure Humidity
    00:00 -2°C° 0 mm 2 mps 695 mmHg 73%
    01:00 -3°C° 0 mm 2 mps 695 mmHg 73%
    02:00 -3°C° 0 mm 2 mps 694 mmHg 71%
    03:00 -2°C° 0 mm 2 mps 694 mmHg 69%
    04:00 -2°C° 0 mm 2 mps 694 mmHg 67%
    05:00 -2°C° 0 mm 2 mps 694 mmHg 67%
    06:00 -2°C° 0 mm 2 mps 694 mmHg 66%
    07:00 -2°C° 0 mm 2 mps 694 mmHg 66%
    08:00 +1°C° 0 mm 2 mps 694 mmHg 71%
    09:00 +4°C° 0 mm 1 mps 694 mmHg 76%
    10:00 +6°C° 0 mm 1 mps 695 mmHg 82%
    11:00 +7°C° 0 mm 1 mps 695 mmHg 80%
    12:00 +8°C° 0 mm 1 mps 695 mmHg 78%
    13:00 +10°C° 0 mm 1 mps 695 mmHg 77%
    14:00 +9°C° 0 mm 1 mps 694 mmHg 79%
    15:00 +8°C° 0 mm 1 mps 694 mmHg 80%
    16:00 +8°C° 0 mm 1 mps 694 mmHg 81%
    17:00 +6°C° 0 mm 1 mps 694 mmHg 80%
    18:00 +5°C° 0 mm 1 mps 693 mmHg 80%
    19:00 +3°C° 0 mm 1 mps 693 mmHg 79%
    20:00 +3°C° 0 mm 1 mps 693 mmHg 77%
    21:00 +3°C° 0 mm 1 mps 693 mmHg 75%
    22:00 +2°C° 0 mm 1 mps 693 mmHg 72%
    23:00 +2°C° 0 mm 1 mps 693 mmHg 70%

    Tomorrow, 18 February, Monday

    Time Temperature Precipitation Wind Pressure Humidity
    00:00 +2°C° 0 mm 1 mps 693 mmHg 68%
    01:00 +2°C° 0 mm 1 mps 693 mmHg 65%
    02:00 +2°C° 0 mm 1 mps 693 mmHg 64%
    03:00 +2°C° 0 mm 1 mps 692 mmHg 63%
    04:00 +2°C° 0 mm 1 mps 692 mmHg 61%
    05:00 +2°C° 0 mm 1 mps 692 mmHg 61%
    06:00 +2°C° 0 mm 1 mps 692 mmHg 60%
    07:00 +2°C° 0 mm 1 mps 692 mmHg 60%
    08:00 +4°C° 0 mm 1 mps 692 mmHg 60%
    09:00 +5°C° 0 mm 0 mps 693 mmHg 61%
    10:00 +7°C° 0 mm 0 mps 693 mmHg 62%
    11:00 +8°C° 0 mm 0 mps 693 mmHg 60%
    12:00 +9°C° 0 mm 0 mps 693 mmHg 57%
    13:00 +11°C° 0 mm 1 mps 693 mmHg 55%
    14:00 +10°C° 0 mm 1 mps 692 mmHg 60%
    15:00 +9°C° 0 mm 1 mps 692 mmHg 64%
    16:00 +9°C° 0 mm 1 mps 692 mmHg 69%
    17:00 +6°C° 0 mm 0 mps 691 mmHg 72%
    18:00 +4°C° 0 mm 0 mps 691 mmHg 75%
    19:00 +3°C° 0 mm 0 mps 691 mmHg 79%
    20:00 +4°C° 0 mm 1 mps 691 mmHg 79%
    21:00 +3°C° 0 mm 1 mps 691 mmHg 79%
    22:00 +3°C° 0 mm 1 mps 691 mmHg 79%
    23:00 +3°C° 0 mm 1 mps 691 mmHg 79%

    Day after tomorrow, 19 February, Tuesday

    Time Temperature Precipitation Wind Pressure Humidity
    00:00 +3°C° 0 mm 1 mps 691 mmHg 79%
    01:00 +3°C° 0 mm 1 mps 691 mmHg 79%
    02:00 +3°C° 0 mm 1 mps 691 mmHg 80%
    03:00 +2°C° 0 mm 1 mps 691 mmHg 81%
    04:00 +2°C° 0 mm 1 mps 690 mmHg 82%
    05:00 +2°C° 0 mm 1 mps 690 mmHg 82%
    06:00 +2°C° 0 mm 1 mps 690 mmHg 82%
    07:00 +2°C° 0 mm 1 mps 690 mmHg 83%
    08:00 +4°C° 0 mm 1 mps 691 mmHg 78%
    09:00 +6°C° 0 mm 1 mps 691 mmHg 73%
    10:00 +8°C° 0 mm 1 mps 691 mmHg 69%
    11:00 +8°C° 0 mm 1 mps 691 mmHg 67%
    12:00 +8°C° 0 mm 2 mps 691 mmHg 64%
    13:00 +9°C° 0 mm 2 mps 691 mmHg 62%
    14:00 +9°C° 0 mm 1 mps 691 mmHg 68%
    15:00 +9°C° 0 mm 1 mps 690 mmHg 73%
    16:00 +8°C° 0 mm 1 mps 690 mmHg 78%
    17:00 +6°C° 0 mm 1 mps 690 mmHg 83%
    18:00 +5°C° 0 mm 1 mps 690 mmHg 88%
    19:00 +3°C° 0 mm 1 mps 690 mmHg 92%
    20:00 +3°C° 0 mm 1 mps 690 mmHg 93%
    21:00 +3°C° 0 mm 1 mps 690 mmHg 94%
    22:00 +3°C° 0 mm 1 mps 690 mmHg 95%
    23:00 +3°C° 0 mm 1 mps 690 mmHg 95%

    20 February, Wednesday

    Time Temperature Precipitation Wind Pressure Humidity
    00:00 +2°C° 0 mm 1 mps 690 mmHg 95%
    01:00 +2°C° 0 mm 1 mps 691 mmHg 95%
    02:00 +2°C° 0 mm 1 mps 690 mmHg 95%
    03:00 +1°C° 0 mm 0 mps 690 mmHg 94%
    04:00 +1°C° 0 mm 0 mps 690 mmHg 94%
    05:00 +1°C° 0 mm 0 mps 690 mmHg 93%
    06:00 +2°C° 0 mm 1 mps 691 mmHg 92%
    07:00 +2°C° 0 mm 1 mps 691 mmHg 91%
    08:00 +4°C° 0 mm 1 mps 691 mmHg 85%
    09:00 +5°C° 0 mm 1 mps 692 mmHg 79%
    10:00 +7°C° 0 mm 1 mps 693 mmHg 73%
    11:00 +8°C° 0 mm 1 mps 693 mmHg 71%
    12:00 +9°C° 0 mm 1 mps 693 mmHg 69%
    13:00 +9°C° 0 mm 1 mps 693 mmHg 67%
    14:00 +9°C° 0 mm 1 mps 693 mmHg 71%
    15:00 +8°C° 0 mm 1 mps 693 mmHg 75%
    16:00 +8°C° 0 mm 1 mps 692 mmHg 79%
    17:00 +6°C° 0 mm 1 mps 693 mmHg 82%
    18:00 +5°C° 0 mm 1 mps 693 mmHg 86%
    19:00 +4°C° 0 mm 1 mps 693 mmHg 89%
    20:00 +3°C° 0 mm 1 mps 693 mmHg 89%
    21:00 +3°C° 0 mm 1 mps 693 mmHg 89%
    22:00 +2°C° 0 mm 1 mps 693 mmHg 90%
    23:00 +2°C° 0 mm 1 mps 693 mmHg 89%

    21 February, Thursday

    Time Temperature Precipitation Wind Pressure Humidity
    00:00 +2°C° 0 mm 1 mps 693 mmHg 89%
    01:00 +2°C° 0 mm 1 mps 693 mmHg 89%
    02:00 +2°C° 0 mm 1 mps 693 mmHg 89%
    03:00 +2°C° 0 mm 1 mps 694 mmHg 89%
    04:00 +2°C° 0 mm 1 mps 694 mmHg 89%
    05:00 +2°C° 0 mm 1 mps 694 mmHg 88%
    06:00 +2°C° 0 mm 1 mps 694 mmHg 88%
    07:00 +2°C° 0 mm 1 mps 694 mmHg 87%
    08:00 +3°C° 0 mm 1 mps 694 mmHg 79%
    09:00 +5°C° 0 mm 1 mps 695 mmHg 70%
    10:00 +7°C° 0 mm 1 mps 695 mmHg 61%
    11:00 +8°C° 0 mm 1 mps 695 mmHg 57%
    12:00 +9°C° 0 mm 1 mps 696 mmHg 53%
    13:00 +10°C° 0 mm 1 mps 696 mmHg 49%
    14:00 +9°C° 0 mm 1 mps 695 mmHg 53%
    15:00 +9°C° 0 mm 1 mps 695 mmHg 58%
    16:00 +9°C° 0 mm 1 mps 695 mmHg 62%
    17:00 +7°C° 0 mm 1 mps 695 mmHg 66%
    18:00 +5°C° 0 mm 1 mps 694 mmHg 70%
    19:00 +4°C° 0 mm 1 mps 694 mmHg 74%
    20:00 +3°C° 0 mm 1 mps 694 mmHg 75%
    21:00 +3°C° 0 mm 1 mps 695 mmHg 75%
    22:00 +3°C° 0 mm 1 mps 695 mmHg 76%
    23:00 +3°C° 0 mm 1 mps 695 mmHg 76%

    22 February, Friday

    Time Temperature Precipitation Wind Pressure Humidity
    00:00 +3°C° 0 mm 1 mps 695 mmHg 76%
    01:00 +3°C° 0 mm 1 mps 695 mmHg 76%
    02:00 +2°C° 0 mm 1 mps 694 mmHg 75%
    03:00 +2°C° 0 mm 1 mps 694 mmHg 75%
    04:00 +2°C° 0 mm 1 mps 694 mmHg 75%
    05:00 +2°C° 0 mm 1 mps 694 mmHg 74%
    06:00 +1°C° 0 mm 2 mps 694 mmHg 73%
    07:00 +1°C° 0 mm 2 mps 695 mmHg 72%
    08:00 +3°C° 0 mm 2 mps 695 mmHg 66%
    09:00 +5°C° 0 mm 2 mps 696 mmHg 60%
    10:00 +7°C° 0 mm 2 mps 696 mmHg 53%
    11:00 +7°C° 0 mm 3 mps 696 mmHg 55%
    12:00 +8°C° 0 mm 3 mps 696 mmHg 58%
    13:00 +7°C° 0 mm 4 mps 696 mmHg 60%
    14:00 +8°C° 0 mm 3 mps 696 mmHg 65%
    15:00 +7°C° 0 mm 3 mps 696 mmHg 70%
    16:00 +5°C° 0 mm 3 mps 695 mmHg 74%
    17:00 +4°C° 0 mm 3 mps 696 mmHg 80%
    18:00 +3°C° 0 mm 3 mps 696 mmHg 86%
    19:00 +2°C° 0 mm 3 mps 696 mmHg 92%
    20:00 +2°C° 0.1 mm 3 mps 696 mmHg 92%
    21:00 +2°C° 0.1 mm 3 mps 696 mmHg 93%
    22:00 +2°C° 0.1 mm 3 mps 696 mmHg 93%
    23:00 +2°C° 0.1 mm 3 mps 697 mmHg 93%
    Show more